Weather History for Wolf Creek Pass, CO

Change the Weather History Date:

Saturday, September 22, 2012

  Actual Average (KALS) Record (KALS)
Temperature  
Mean Temperature 47 °F 53 °F  
Max Temperature 53 °F 71 °F 85 °F (1944)
Min Temperature 41 °F 34 °F 20 °F (1983)
Degree Days  
Heating Degree Days 18 12  
Month to date heating degree days 188  
Since 1 July heating degree days 317  
Cooling Degree Days 0 0  
Month to date cooling degree days 0  
Year to date cooling degree days 51  
Moisture  
Dew Point 13 °F    
Average Humidity 26    
Maximum Humidity 31    
Minimum Humidity 21    
Precipitation  
Precipitation 0.00 in 0.03 in 1.06 in (2013)
Month to date precipitation 0.72  
Year to date precipitation 5.67  
Snow  
Snow 0.00 in 0.00 in 0.00 in (2002)
Month to date snowfall 0.0  
Since 1 July snowfall 0.0  
Since 1 September snowfall 0.0  
Snow Depth -    
Sea Level Pressure  
Sea Level Pressure 30.65 in    
Wind  
Wind Speed 14 mph (SW)    
Max Wind Speed 25 mph    
Max Gust Speed 39 mph    
Visibility 10 miles    
Events      
T = Trace of Precipitation, MM = Missing Value Source: NWS Daily Summary

Daily Weather History Graph

Daily Weather History Graph

Search for Another Location

Airport:

Trip Planner

Search our weather history database for the weather conditions in past years. The results will help you decide how hot, cold, wet, or windy it might be!

Date:

Astronomy

Sep. 22, 2012 Rise Set
Actual Time 6:55 AM MDT 7:03 PM MDT
Civil Twilight 6:29 AM MDT 7:29 PM MDT
Nautical Twilight 5:58 AM MDT 7:59 PM MDT
Astronomical Twilight 5:27 AM MDT 8:30 PM MDT
Moon 2:08 PM MDT (9/22) No Moon Set
Length of Visible Light 12h 59m
Length of Day
12h 07m
Waxing Crescent, 49% of the Moon is Illuminated
Sep 22
Waxing Crescent
Sep 22
First Quarter
Sep 29
Full
Oct 8
Last Quarter
Oct 15
New

Hourly Weather History & Observations

Time (MDT) Temp. Windchill Dew Point Humidity Pressure Visibility Wind Dir Wind Speed Gust Speed Precip Events Conditions
12:16 AM 44.6 °F 37.8 °F 12.2 °F 27% 30.62 in 10.0 mi SW 15.0 mph - N/A   Clear
12:36 AM 44.6 °F 38.1 °F 12.2 °F 27% 30.62 in 10.0 mi SW 13.8 mph - N/A   Clear
12:56 AM 42.8 °F - 12.2 °F 29% 30.62 in 10.0 mi North - - N/A   Clear
1:16 AM 44.6 °F - 12.2 °F 27% 30.62 in 10.0 mi North - - N/A   Clear
1:36 AM 44.6 °F 37.8 °F 12.2 °F 27% 30.62 in 10.0 mi WSW 15.0 mph - N/A   Clear
1:56 AM 44.6 °F 37.4 °F 12.2 °F 27% 30.62 in 10.0 mi SW 16.1 mph - N/A   Clear
2:16 AM 44.6 °F - 12.2 °F 27% 30.62 in 10.0 mi North - - N/A   Clear
2:36 AM 44.6 °F 38.4 °F 12.2 °F 27% 30.62 in 10.0 mi WSW 12.7 mph - N/A   Clear
2:56 AM 44.6 °F 38.4 °F 12.2 °F 27% 30.62 in 10.0 mi SW 12.7 mph - N/A   Clear
3:16 AM 42.8 °F 37.0 °F 10.4 °F 27% 30.62 in 10.0 mi SW 10.4 mph - N/A   Clear
3:36 AM 42.8 °F 36.6 °F 12.2 °F 29% 30.62 in 10.0 mi SW 11.5 mph - N/A   Clear
3:56 AM 42.8 °F 37.0 °F 12.2 °F 29% 30.62 in 10.0 mi SW 10.4 mph - N/A   Clear
4:16 AM 42.8 °F 37.0 °F 12.2 °F 29% 30.62 in 10.0 mi SW 10.4 mph - N/A   Clear
4:36 AM 42.8 °F 37.5 °F 12.2 °F 29% 30.63 in 10.0 mi SSW 9.2 mph - N/A   Clear
4:56 AM 42.8 °F 37.5 °F 12.2 °F 29% 30.63 in 10.0 mi SW 9.2 mph - N/A   Clear
5:16 AM 41.0 °F 34.3 °F 10.4 °F 29% 30.63 in 10.0 mi SW 11.5 mph - N/A   Clear
5:36 AM 41.0 °F 34.7 °F 10.4 °F 29% 30.63 in 10.0 mi SW 10.4 mph - N/A   Clear
5:56 AM 41.0 °F 34.3 °F 10.4 °F 29% 30.64 in 10.0 mi SW 11.5 mph 16.1 mph N/A   Clear
6:16 AM 41.0 °F 34.7 °F 10.4 °F 29% 30.64 in 10.0 mi SW 10.4 mph 16.1 mph N/A   Clear
6:36 AM 41.0 °F 35.2 °F 10.4 °F 29% 30.64 in 10.0 mi SW 9.2 mph 16.1 mph N/A   Clear
6:56 AM 41.0 °F 34.7 °F 10.4 °F 29% 30.64 in 10.0 mi SW 10.4 mph - N/A   Clear
7:16 AM 41.0 °F 34.3 °F 10.4 °F 29% 30.64 in 10.0 mi SW 11.5 mph 17.3 mph N/A   Clear
7:36 AM 42.8 °F 37.0 °F 10.4 °F 27% 30.65 in 10.0 mi SW 10.4 mph 16.1 mph N/A   Clear
7:56 AM 42.8 °F 36.6 °F 10.4 °F 27% 30.66 in 10.0 mi SW 11.5 mph 18.4 mph N/A   Clear
8:16 AM 44.6 °F 38.8 °F 10.4 °F 25% 30.66 in 10.0 mi SW 11.5 mph 19.6 mph N/A   Clear
8:56 AM 46.4 °F 40.1 °F 10.4 °F 23% 30.67 in 10.0 mi SW 15.0 mph 23.0 mph N/A   Clear
9:16 AM 46.4 °F 41.1 °F 12.2 °F 25% 30.67 in 10.0 mi SSW 11.5 mph 19.6 mph N/A   Clear
9:36 AM 46.4 °F 40.7 °F 10.4 °F 23% 30.67 in 10.0 mi SSW 12.7 mph 21.9 mph N/A   Clear
9:56 AM 50.0 °F - 12.2 °F 22% 30.68 in 10.0 mi SW 13.8 mph 19.6 mph N/A   Clear
10:16 AM 50.0 °F - 12.2 °F 22% 30.68 in 10.0 mi SW 11.5 mph 23.0 mph N/A   Clear
10:36 AM 51.8 °F - 14.0 °F 22% 30.68 in 10.0 mi SSW 9.2 mph 17.3 mph N/A   Clear
10:56 AM 51.8 °F - 14.0 °F 22% 30.69 in 10.0 mi SSW 11.5 mph 20.7 mph N/A   Clear
11:16 AM 51.8 °F - 14.0 °F 22% 30.68 in 10.0 mi SSW 12.7 mph 27.6 mph N/A   Clear
11:36 AM 51.8 °F - 14.0 °F 22% 30.68 in 10.0 mi SSW 10.4 mph 32.2 mph N/A   Clear
12:16 PM 51.8 °F - 14.0 °F 22% 30.68 in 10.0 mi SSW 18.4 mph 35.7 mph N/A   Clear
12:36 PM 51.8 °F - 14.0 °F 22% 30.67 in 10.0 mi SW 24.2 mph 39.1 mph N/A   Clear
12:56 PM 53.6 °F - 17.6 °F 24% 30.67 in 10.0 mi SSW 16.1 mph - N/A   Clear
1:16 PM 53.6 °F - 17.6 °F 24% 30.67 in 10.0 mi SW 25.3 mph - N/A   Clear
1:36 PM 53.6 °F - 17.6 °F 24% 30.66 in 10.0 mi SSW 10.4 mph 26.5 mph N/A   Clear
1:56 PM 53.6 °F - 17.6 °F 24% 30.66 in 10.0 mi SSW 9.2 mph 29.9 mph N/A   Clear
2:16 PM 53.6 °F - 15.8 °F 22% 30.66 in 10.0 mi SSW 11.5 mph 32.2 mph N/A   Clear
2:36 PM 53.6 °F - 15.8 °F 22% 30.66 in 10.0 mi North - - N/A   Clear
2:56 PM 53.6 °F - 15.8 °F 22% 30.66 in 10.0 mi North - - N/A   Clear
3:16 PM 53.6 °F - 14.0 °F 21% 30.65 in 10.0 mi North - - N/A   Clear
3:36 PM 53.6 °F - 15.8 °F 22% 30.65 in 10.0 mi SSW 12.7 mph - N/A   Clear
3:56 PM 53.6 °F - 14.0 °F 21% 30.64 in 10.0 mi North - - N/A   Clear
4:16 PM 53.6 °F - 14.0 °F 21% 30.64 in 10.0 mi North - - N/A   Clear
4:36 PM 53.6 °F - 15.8 °F 22% 30.64 in 10.0 mi North - - N/A   Clear
4:56 PM 51.8 °F - 15.8 °F 24% 30.64 in 10.0 mi North - - N/A   Clear
5:16 PM 51.8 °F - 15.8 °F 24% 30.64 in 10.0 mi SW 15.0 mph - N/A   Clear
5:36 PM 51.8 °F - 15.8 °F 24% 30.64 in 10.0 mi North - - N/A   Clear
5:56 PM 50.0 °F - 14.0 °F 24% 30.64 in 10.0 mi SW 16.1 mph - N/A   Clear
6:16 PM 48.2 °F - 14.0 °F 25% 30.64 in 10.0 mi SW 20.7 mph - N/A   Clear
6:36 PM 46.4 °F 39.2 °F 14.0 °F 27% 30.64 in 10.0 mi SW 18.4 mph 28.8 mph N/A   Clear
6:56 PM 46.4 °F 39.8 °F 14.0 °F 27% 30.64 in 10.0 mi SW 16.1 mph 26.5 mph N/A   Clear
7:16 PM 46.4 °F - 14.0 °F 27% 30.64 in 10.0 mi North - - N/A   Clear
7:36 PM 46.4 °F 39.0 °F 14.0 °F 27% 30.64 in 10.0 mi SW 19.6 mph 27.6 mph N/A   Clear
7:55 PM 44.6 °F - 14.0 °F 29% 30.64 in 10.0 mi North - - N/A   Clear
8:16 PM 44.6 °F - 14.0 °F 29% 30.65 in 10.0 mi North - - N/A   Clear
8:36 PM 44.6 °F 37.2 °F 14.0 °F 29% 30.66 in 10.0 mi SW 17.3 mph 25.3 mph N/A   Clear
8:56 PM 44.6 °F 36.9 °F 14.0 °F 29% 30.66 in 10.0 mi SW 18.4 mph - N/A   Clear
9:16 PM 44.6 °F 36.9 °F 14.0 °F 29% 30.67 in 10.0 mi SW 18.4 mph - N/A   Clear
9:36 PM 44.6 °F 36.6 °F 14.0 °F 29% 30.67 in 10.0 mi SW 19.6 mph - N/A   Clear
9:55 PM 44.6 °F 36.9 °F 14.0 °F 29% 30.66 in 10.0 mi SW 18.4 mph 23.0 mph N/A   Clear
10:16 PM 46.4 °F 39.5 °F 14.0 °F 27% 30.66 in 10.0 mi WSW 17.3 mph 21.9 mph N/A   Clear
10:36 PM 44.6 °F 37.2 °F 15.8 °F 31% 30.66 in 10.0 mi SW 17.3 mph 21.9 mph N/A   Clear
10:56 PM 44.6 °F 37.4 °F 15.8 °F 31% 30.66 in 10.0 mi SW 16.1 mph - N/A   Clear
11:16 PM 44.6 °F 37.8 °F 15.8 °F 31% 30.66 in 10.0 mi WSW 15.0 mph 21.9 mph N/A   Clear
11:36 PM 44.6 °F 38.4 °F 15.8 °F 31% 30.66 in 10.0 mi WSW 12.7 mph 20.7 mph N/A   Clear
11:56 PM 44.6 °F 38.4 °F 15.8 °F 31% 30.66 in 10.0 mi WSW 12.7 mph - N/A   Clear